Location: Potomac
(46.8816°N, 113.5795°W)
Time: 10:57:36
(UTC+00:00)

Gurwin Techsat 1B - Pass Details

Date: 02 July 2022
Orbit: 812 x 813 km, 98.8° (Epoch: 10 August)

Event Time Altitude Azimuth Distance (km) Brightness Sun altitude
Rises 10:02:14 0° 16° (NNE) 3,347 13.4 -12.9°
Reaches altitude 10° 10:04:36 10° 19° (NNE) 2,410 12.4 -12.7°
Maximum altitude 10:09:55 67° 103° (ESE) 881 8.9 -12.2°
Enters shadow 10:15:02 11° 185° (S) 2,335 10.5 -11.7°
